Regional Weather Roundup
Issued by NWS San Diego, CA

Home | Current Version | Previous Version | Text Only | Print | Product List | Glossary On
Versions: 1 2 3 4 5 6 7 8 9 10 11 12 13 14 15 16 17 18 19 20 21 22 23 24 25 26 27 28 29 30 31 32 33 34 35 36 37 38 39 40 41 42 43 44 45 46 47 48 49 50
000
ASUS46 KSGX 270411
RWRSGX

SAN DIEGO HOURLY WEATHER ROUNDUP
NATIONAL WEATHER SERVICE SAN DIEGO CA
800 PM PST THU FEB 26 2015

NOTE: "FAIR" INDICATES FEW OR NO CLOUDS BELOW 12,000 FEET WITH NO
SIGNIFICANT WEATHER AND/OR OBSTRUCTIONS TO VISIBILITY.

CAZ042-043-060-061-PZZ750-775-270500-

GREATER SAN DIEGO AREA

CITY           SKY/WX    TMP DP  RH WIND       PRES   REMARKS
LINDBERGH FLD  PTCLDY    61  50  67 S3        29.89R
NATIONAL CITY    N/A     60  53  77 CALM      29.88R
CHULA VISTA      N/A     57  53  86 CALM      29.81R
IMPERIAL BEACH MOCLDY    56  50  80 CALM      29.88R
BROWN FIELD    CLEAR     56  50  80 CALM      29.87R
MIRAMAR MCAS   MOCLDY    54  49  83 CALM      29.87R
MONTGOMERY FLD PTCLDY    58  51  78 CALM      29.88R

$$

NORTH SAN DIEGO COUNTY

CITY           SKY/WX    TMP DP  RH WIND       PRES   REMARKS
CAMP PENDLETON PTCLDY    52  48  86 NE3       29.87R
OCEANSIDE AP   CLEAR     51  47  86 CALM      29.86S
OCEANSIDE HBR    N/A     58  54  86 SW2       29.89S
VISTA            N/A     54  48  81 CALM      29.86S
CARLSBAD       CLEAR     57  51  80 CALM      29.86S
DEL MAR          N/A     56  53  90 CALM      29.90R
LA JOLLA SCRIP   N/A     58  18  21 CALM      29.85R
FALLBROOK        N/A     54  54  99 CALM      29.88R
ESCONDIDO        N/A     57  51  79 SW3       29.89R
SAN MARCOS       N/A     57  51  81 CALM      29.86R
POWAY            N/A     54  49  82 CALM      29.90R

$$

EAST SAN DIEGO COUNTY

CITY           SKY/WX    TMP DP  RH WIND       PRES   REMARKS
RAMONA         CLEAR     49  45  86 CALM      29.87R
SANTEE LAKES     N/A     53  48  84 CALM      29.89R
LA MESA          N/A     56  52  84 CALM      29.82R
JAMUL            N/A     52  49  89 CALM      29.88R
DESCANSO N       N/A     43  37  80 CALM      29.78R
MT. LAGUNA OBS   N/A     45  24  43 NW3       29.52R
CAMPO            N/A     47  44  90 CALM      29.85R

$$

ORANGE COUNTY AND THE LOS ANGELES BASIN

CITY           SKY/WX    TMP DP  RH WIND       PRES   REMARKS
JOHN WAYNE AP  PTCLDY    61  53  75 S6        29.85F
LAGUNA BEACH     N/A     54  51  90 CALM      29.82S
LAKE FOREST FR   N/A     55  46  72 CALM      29.77S
SANTA ANA        N/A     60  52  74 CALM      29.81S
HUNTINGTON BCH   N/A     58  55  90 CALM      29.87S
LOS ALAMITOS   PTCLDY    57  55  93 CALM      29.86R
FULLERTON      CLEAR     59  53  80 SW5       29.85S
LONG BEACH     CLEAR     60  55  83 S3        29.86S
L.A. AP        CLEAR     58  53  84 VRB3      29.85F
L.A. DOWNTOWN  CLEAR    N/A N/A N/A CALM      29.85S

$$

THE INLAND EMPIRE

CITY           SKY/WX    TMP DP  RH WIND       PRES   REMARKS
CORONA         CLEAR     57  47  69 CALM      29.86R
CHINO          CLEAR     57  46  66 NW5       29.87R
ONTARIO        PTCLDY    56  46  69 W7        29.86R
SAN BERNARDINO PTCLDY    55  45  67 SW7       29.86R
RIVERSIDE AP   CLEAR     58  47  66 CALM      29.86R
RIV CYN CREST    N/A     58  55  87 CALM        N/A
MORENO VALLEY    N/A     56  51  81 SE2       29.06R
MARCH ARB      CLEAR     50  46  86 CALM      29.86R
HORSETHIEF CYN   N/A     54  44  68 CALM      29.84R
PERRIS           N/A     56  44  64 SE1         N/A
MENIFEE          N/A     56  46  67 CALM      29.94R
HEMET EAST       N/A     53  39  59 CALM      29.87R
FRENCH VALLEY  FAIR      52  45  76 SE5       29.88R
TEMECULA         N/A     56  51  81 S3        29.85R

$$

SAN BERNARDINO AND RIVERSIDE COUNTY MOUNTAINS

CITY           SKY/WX    TMP DP  RH WIND       PRES   REMARKS
BIG BEAR AP    PTCLDY    34  27  75 SW3       29.95F
PINE COVE        N/A     42  32  66 N3        29.84R

$$

SOUTHERN DESERT INCLUDING THE COACHELLA VALLEY

CITY           SKY/WX    TMP DP  RH WIND       PRES   REMARKS
PALM SPRINGS   CLEAR     70  40  33 NW14G22   29.77R
THOUSAND PALMS   N/A     68  42  39 NW14      29.74R
PALM DESERT      N/A     69  44  40 CALM      31.68F
THERMAL        PTCLDY    69  40  34 NW9       29.73R
BLYTHE         CLEAR     69  26  20 SW9       29.74R
IMPERIAL AP    PTCLDY    66  39  37 CALM      29.73R
EL CENTRO NAS  PTCLDY    66  37  34 SW3       29.74R
YUMA AZ        MOCLDY    68  33  27 SW5       29.75R
MEXICALI       PTCLDY    63  46  55 S5        29.74

$$

UPPER DESERT

CITY           SKY/WX    TMP DP  RH WIND       PRES   REMARKS
VICTORVILLE AP CLEAR     54  34  47 SE5       29.86R
HESPERIA         N/A     55  36  49 CALM      29.99R
APPLE VALLEY     N/A     56  33  40 CALM      29.95R
PALMDALE       CLEAR     53  33  46 W12       29.89R
LANCASTER      CLEAR     51  34  52 W13       29.87R
EDWARDS AFB    PTCLDY    56  34  43 W24       29.80F
DAGGETT        CLEAR     60  34  37 W7        29.82R
29 PALMS N     PTCLDY    59  30  33 VRB5      29.88R
NEEDLES        CLEAR     64  29  26 W7        29.74S

$$

REGIONAL REPORTS

CITY           SKY/WX    TMP DP  RH WIND       PRES   REMARKS
SANTA BARBARA  PTCLDY    59  55  87 SE5       29.84R
SANDBERG       CLEAR     46  32  58 NE10G20   29.94S
MT. WILSON       N/A     45  25  45 SE2G8       N/A
LAS VEGAS NV   CLEAR     61  23  23 VRB3      29.74R
PHOENIX AZ     PTCLDY    67  26  21 S3        29.74S
TIJUANA        PTCLDY    55  48  76 CALM      29.90R
ENSENADA NW      N/A     58  32  37 N2        29.86R

$$

OFFSHORE ISLANDS

CITY           SKY/WX    TMP DP  RH WIND       PRES   REMARKS
CATALINA ARPT  CLEAR     55  47  74 CALM      29.87F
SAN NICOLAS IS CLEAR    N/A N/A N/A NW17      29.85S

$$

MARINE AND OFFSHORE BUOY REPORTS

STATION/POSITION SKY/WX   TEMP    WIND        PRES    SWELL
                          AIR SEA DIR/SP/G            HT/PER/DIR
                          (F)     (DEG/KT/KT) (MB)    (FT/S/D)
TANNER BANKS               61 62  320/ 17/ 23 1011.3R   5/310/ 9
S CLEMENTE BASIN           61 63  310/ 10/ 12 1011.1R   5/290/ 8
SAN NICOLAS IS.               60                N/A     3/300/11
SO. S. ROSA ISLA           59 60  330/ 23/ 29 1010.0R   5/ 9
W. S. BARBARA CH           58 59  320/ 23/ 27 1010.7S   7/320/ 9
S. MONICA BASIN            60 63   70/  4/  4 1010.9R   3/250/11
S PEDRO CHANNEL               62                N/A     2/270/11
DANA POINT                    62                N/A     2/240/12
CMP PENDLETON NS              62                N/A     2/240/11
OCEANSIDE OFFSHR              63                N/A     2/240/12
TORREY PINES OTR              63                N/A     2/260/11
LA JOLLA 1                 60 63  150/  3/  3 1011.2R
MISSION BAY BUOY              63                N/A     2/270/11
SAN DIEGO BAY                 65              1011.7R
POINT LOMA SOUTH              63                N/A     2/250/12

$$




USA.gov is the U.S. government's official web portal to all federal, state and local government web resources and services.